Location: Balsareny
(41.8670°N, 1.8830°E)
Time: 04:37:28
(UTC+01:00)

N. Korean satellite - Pass Details

Date: 04 December 2021
Orbit: 447 x 491 km, 97.3° (Epoch: 23 January)

Event Time Altitude Azimuth Distance (km) Brightness Sun altitude
Rises 17:58:03 0° 193° (SSW) 2,531 10.8 -6.9°
Reaches altitude 10° 18:00:23 10° 207° (SSW) 1,649 10.1 -7.3°
Maximum altitude 18:03:21 25° 264° (W) 1,004 9.2 -7.8°
Drops below altitude 10° 18:06:17 10° 321° (NW) 1,638 9.5 -8.3°
Sets 18:08:36 0° 335° (NNW) 2,510 10.2 -8.7°
